Homer, AK

7:57 PM AKST on February 07, 2016 (GMT -0900)
Homer

Weather History for PAHO - October, 2012

Change the Weather History Date:

Saturday, October 27, 2012

  Actual Average Record
Temperature  
Mean Temperature 28 °F -  
Max Temperature 39 °F 38 °F 57 °F (2013)
Min Temperature 19 °F 24 °F 7 °F (1966)
Degree Days  
Heating Degree Days 37    
Moisture  
Dew Point 15 °F    
Average Humidity 61    
Maximum Humidity 74    
Minimum Humidity 43    
Precipitation  
Precipitation 0.00 in - - ()
Sea Level Pressure  
Sea Level Pressure 30.07 in    
Wind  
Wind Speed 2 mph (NE)    
Max Wind Speed 8 mph    
Max Gust Speed -    
Visibility 10 miles    
Events      
Averages and records for this station are not official NWS values.
T = Trace of Precipitation, MM = Missing Value Source: NWS Daily Summary

Daily Weather History Graph

Daily Weather History Graph

Search for Another Location

Airport or City:

Trip Planner

Search our weather history database for the weather conditions in past years. The results will help you decide how hot, cold, wet, or windy it might be!

Date:

Astronomy

Oct. 27, 2012 Rise Set
Actual Time 9:15 AM AKDT 6:22 PM AKDT
Civil Twilight 8:32 AM AKDT 7:06 PM AKDT
Nautical Twilight 7:43 AM AKDT 7:54 PM AKDT
Astronomical Twilight 6:56 AM AKDT 8:41 PM AKDT
Moon 5:26 PM AKDT (10/27) 7:02 AM AKDT (10/27)
Length of Visible Light 10h 33m
Length of Day
9h 06m
Waxing Gibbous, 96% of the Moon is Illuminated
Oct 27
Waxing Gibbous
Oct 29
Full
Nov 6
Last Quarter
Nov 13
New
Nov 20
First Quarter

Hourly Weather History & Observations

Time (AKDT) Temp. Windchill Dew Point Humidity Pressure Visibility Wind Dir Wind Speed Gust Speed Precip Events Conditions
12:53 AM 21.9 °F - 12.0 °F 66% 30.19 in 10.0 mi Calm Calm - N/A   Clear
1:53 AM 21.9 °F 14.5 °F 12.9 °F 68% 30.18 in 10.0 mi NNE 5.8 mph - N/A   Clear
2:53 AM 19.9 °F - 12.9 °F 74% 30.17 in 10.0 mi Calm Calm - N/A   Clear
3:53 AM 21.9 °F - 12.9 °F 68% 30.15 in 10.0 mi Calm Calm - N/A   Clear
4:53 AM 19.9 °F - 12.9 °F 74% 30.14 in 10.0 mi Calm Calm - N/A   Clear
5:53 AM 19.9 °F - 12.9 °F 74% 30.12 in 10.0 mi Calm Calm - N/A   Clear
6:53 AM 19.9 °F 13.4 °F 12.9 °F 74% 30.11 in 10.0 mi NE 4.6 mph - N/A   Clear
7:53 AM 21.0 °F 12.4 °F 12.0 °F 68% 30.10 in 10.0 mi ENE 6.9 mph - N/A   Clear
8:53 AM 25.0 °F 19.3 °F 12.0 °F 58% 30.09 in 10.0 mi NE 4.6 mph - N/A   Clear
9:53 AM 19.9 °F 14.9 °F 10.9 °F 68% 30.09 in 10.0 mi ENE 3.5 mph - N/A   Clear
10:53 AM 28.0 °F 22.8 °F 16.0 °F 61% 30.08 in 10.0 mi NNE 4.6 mph - N/A   Clear
11:53 AM 33.1 °F 30.0 °F 19.9 °F 59% 30.08 in 10.0 mi ENE 3.5 mph - N/A   Clear
12:53 PM 35.1 °F 32.2 °F 19.9 °F 54% 30.07 in 10.0 mi ENE 3.5 mph - N/A   Clear
1:53 PM 37.0 °F - 17.1 °F 44% 30.06 in 10.0 mi Calm Calm - N/A   Clear
2:53 PM 37.9 °F 32.1 °F 17.1 °F 43% 30.05 in 10.0 mi ENE 8.1 mph - N/A   Clear
3:53 PM 37.9 °F 32.7 °F 19.0 °F 47% 30.04 in 10.0 mi ENE 6.9 mph - N/A   Clear
4:53 PM 37.9 °F 35.5 °F 18.0 °F 45% 30.02 in 10.0 mi ENE 3.5 mph - N/A   Clear
5:53 PM 36.0 °F 32.1 °F 19.0 °F 50% 30.02 in 10.0 mi NE 4.6 mph - N/A   Clear
6:53 PM 32.0 °F 28.7 °F 17.1 °F 54% 30.01 in 10.0 mi NE 3.5 mph - N/A   Clear
7:53 PM 28.9 °F 23.9 °F 15.1 °F 56% 30.01 in 10.0 mi NNE 4.6 mph - N/A   Clear
8:53 PM 27.0 °F - 15.1 °F 61% 30.01 in 10.0 mi Calm Calm - N/A   Clear
9:53 PM 26.1 °F - 14.0 °F 60% 30.01 in 10.0 mi Calm Calm - N/A   Clear
10:05 PM 28.4 °F 24.6 °F 15.8 °F 59% 30.01 in 6.0 mi NNE 3.5 mph - N/A   Haze
10:53 PM 27.0 °F - 14.0 °F 58% 30.02 in 10.0 mi Calm Calm - N/A   Clear
11:53 PM 23.0 °F - 15.1 °F 72% 30.01 in 10.0 mi Calm Calm - N/A   Clear